Terminal Aerodrome Forecast
Issued by NWS

Home | Current Version | Previous Version | Text Only | Print | Product List | Glossary On
Versions: 1 2 3 4 5 6 7 8 9 10 11 12 13 14 15 16 17 18 19 20 21 22 23 24 25 26 27 28
000
FTUS41 KOKX 010312 AAA
TAFGON
TAF AMD
KGON 010312Z 0103/0124 19004KT P6SM SCT250
     FM010600 14004KT P6SM BKN150
     FM011100 13004KT P6SM BKN120
     FM011400 13008KT P6SM -RA OVC100
     FM011700 14009KT 4SM -RA OVC060
     FM012100 11010KT 4SM -RA OVC030=

USA.gov is the U.S. government's official web portal to all federal, state and local government web resources and services.